[[{"header":{"parameterUnit":"m.s-1","parameterCategory":1,"la1":30.2991,"la2":30.254,"lo1":-89.0895,"lo2":-89.0444,"dy":0.0017,"dx":0.0017,"nx":28,"ny":28,"refTime":"2024-09-28T21:00:00:Z","depth":0,"parameterNumber":2,"parameterNumberName":"U-component_of_WINDS"},"data":[0,0,0,0,0,0,0,0,0,0,0,0,0,0,0,0,0,0,0,0,0,0,0,0,0,0,0,0,0,0,0,0,0,0,0,0,0,0,0,0,0,0,0,0,0,0,0,0,0,0,0,0,0,0,0,0,0,0,4.0783,4.0784,0,4.0906,4.0908,4.0909,4.0855,4.0852,4.0849,4.0846,4.0978,4.0984,4.099,0,0,0,0,0,0,0,0,0,0,0,0,0,4.0506,4.0511,4.0783,4.0784,4.0786,4.0906,4.0908,4.0909,4.0856,4.0852,4.0848,4.0845,4.0976,4.0983,4.0991,0,0,0,0,0,0,0,0,0,0,0,0,0,4.0628,4.0513,4.0782,4.0773,4.0774,4.0906,4.0908,4.091,4.0856,4.0852,4.0847,4.0843,4.0973,4.0982,4.0992,4.1141,0,0,4.1021,4.1025,0,0,0,0,0,0,0,0,4.0621,4.0638,4.0773,4.0774,4.0775,4.086,4.0858,4.0988,4.0858,4.0825,4.0846,4.0841,4.0943,4.0955,4.0988,4.1148,4.1153,4.1022,4.1027,4.1032,4.1034,0,0,0,0,0,0,0,4.0612,4.0632,4.0832,4.0775,4.0776,4.0765,4.0777,4.0883,4.0908,4.0828,4.0824,4.0839,4.0942,4.0979,4.0991,4.1155,4.1021,4.103,4.1036,4.1039,4.1446,4.1451,0,0,0,0,0,0,4.0603,4.0625,4.0828,4.0835,4.0685,4.0774,4.0787,4.0838,4.0907,4.0913,4.0843,4.0836,4.0965,4.0979,4.0995,4.1176,4.1031,4.104,4.1046,4.1441,4.1447,4.1453,0,0,0,0,0,0,4.0597,4.0622,4.0823,4.073,4.0754,4.0783,4.084,4.0843,4.0879,4.0918,4.0923,4.0875,4.0962,4.0982,4.1105,4.1179,4.1045,4.1053,4.1435,4.1443,4.145,4.1538,0,0,0,0,0,0,4.059,4.062,4.0676,4.0731,4.0759,4.093,4.0845,4.0848,4.0895,4.0887,4.095,4.0956,4.096,4.1092,4.1115,4.119,4.1061,4.1428,4.1438,4.1447,4.1528,4.1547,4.1564,0,0,0,0,0,4.058,4.0696,4.0679,4.0704,4.0829,4.0934,4.095,4.0951,4.0901,4.0958,4.0984,4.0954,4.1167,4.1105,4.1131,4.121,4.1424,4.1436,4.1447,4.152,4.1544,4.1563,0,0,0,0,0,0,4.065,4.0703,4.0685,4.0822,4.0874,4.0925,4.0997,4.0976,4.1044,4.1034,4.1034,4.1049,4.1177,4.1206,4.1135,4.1359,4.1288,4.1305,4.1335,4.1358,4.1375,4.1366,4.1069,0,0,0,0,0,4.0682,4.076,4.0803,4.092,4.0947,4.0968,4.1013,4.1009,4.1064,4.1086,4.112,4.1176,4.1256,4.1308,4.1384,4.1532,4.1546,4.1599,4.1617,4.1631,4.1647,4.1729,4.1753,4.149,4.149,4.149,0,0,4.0748,4.0786,4.0836,4.0936,4.0975,4.1059,4.0987,4.1078,4.114,4.11,4.1219,4.1247,4.1309,4.1446,4.1508,4.1474,4.1722,4.1646,4.1657,4.1665,4.1743,4.1768,4.179,4.1498,4.1497,4.1495,0,0,4.091,4.0947,4.1049,4.109,4.115,4.1164,4.1188,4.1243,4.1259,4.1378,4.135,4.1426,4.1562,4.1608,4.1649,4.1831,4.1806,4.1856,4.1948,4.2028,4.2049,4.2067,4.2133,4.2157,4.187,4.1871,4.1871,0,4.0985,4.1108,4.1104,4.1198,4.1243,4.121,4.1314,4.1355,4.1438,4.1471,4.1431,4.1603,4.1642,4.179,4.1834,4.1868,4.1898,4.1848,4.2046,4.2064,4.2082,4.2144,4.2169,4.1876,4.1876,4.1875,4.1874,0,4.1197,4.1283,4.1358,4.1438,4.1492,4.1591,4.1604,4.1659,4.1651,4.1669,4.1792,4.1838,4.1923,4.1957,4.1951,4.2105,4.2082,4.2044,4.1973,4.2112,4.2171,4.2195,4.1884,4.1882,4.1881,4.1879,0,0,4.1407,4.1484,4.1512,4.1548,4.1613,4.168,4.1778,4.1859,4.1908,4.1966,4.205,4.2167,4.2132,4.2179,4.2178,4.2248,4.239,4.2202,4.2203,4.2236,4.2565,4.2594,4.2621,4.2374,4.2379,4.2383,4.256,0,4.1575,4.1745,4.1746,4.1903,4.1983,4.1953,4.2039,4.2089,4.2109,4.2182,4.2204,4.2287,4.2235,4.2263,4.2331,4.2359,4.2457,4.2346,4.2454,4.2458,4.244,4.2652,4.2682,4.2848,4.2583,4.2587,4.259,0,4.1794,4.1858,4.2023,4.2077,4.2111,4.2188,4.2263,4.2332,4.239,4.2399,4.2452,4.244,4.2542,4.2468,4.261,4.2534,4.2579,4.2599,4.2606,4.2616,4.2533,4.2669,4.29,4.2925,4.2626,4.2623,4.2621,0,4.1931,4.206,4.2175,4.2207,4.2273,4.2328,4.2359,4.2411,4.246,4.2527,4.2559,4.2638,4.2681,4.2743,4.2753,4.2698,4.2896,4.2822,4.2909,4.2909,4.2952,4.2949,4.3194,4.298,4.298,4.2979,4.2979,0,4.2119,4.2222,4.2238,4.231,4.2424,4.2425,4.2539,4.2565,4.2612,4.269,4.2669,4.2743,4.2751,4.2828,4.2837,4.2954,4.2974,4.2986,4.2987,4.2988,4.2987,4.3017,4.3006,4.2986,4.2984,4.2983,4.2982,0,4.2292,4.2307,4.2432,4.2484,4.2499,4.2582,4.2627,4.2697,4.2714,4.2812,4.2836,4.2864,4.2954,4.297,4.3075,4.3082,4.3221,4.3211,4.3202,4.3201,4.3286,4.3278,4.356,4.3598,4.3358,4.3361,4.3362,0,4.2411,4.249,4.255,4.2599,4.2632,4.2712,4.2762,4.2767,4.282,4.2892,4.2953,4.304,4.3109,4.3253,4.3285,4.3366,4.3358,4.3451,4.337,4.3369,4.336,4.3356,4.3364,4.3467,4.3469,4.3471,4.3473,0,4.2622,4.2625,4.2697,4.2773,4.2833,4.2893,4.2949,4.2992,4.3004,4.3065,4.3155,4.3209,4.3317,4.3404,4.3485,4.3518,4.3499,4.3498,4.3523,4.3525,4.3516,4.3523,4.3245,4.3492,4.349,4.3489,4.3488,4.3487,4.2772,4.284,4.2894,4.2975,4.3018,4.3072,4.314,4.3166,4.324,4.3327,4.3326,4.3425,4.3482,4.3588,4.3627,4.3706,4.3677,4.3712,4.3721,4.373,4.3738,4.3503,4.3721,4.372,4.372,4.3719,4.3719,0,4.2982,4.3015,4.3089,4.3169,4.3234,4.3208,4.327,4.3326,4.3413,4.3467,4.3536,4.364,4.3725,4.3763,4.3847,4.3903,4.3897,4.3925,4.3921,4.393,4.3759,4.373,4.3929,4.3929,4.3929,4.3929,4.3929,4.3929,4.3098,4.3213,4.3223,4.336,4.3392,4.3488,4.3526,4.3576,4.3619,4.3736,4.3806,4.383,4.3878,4.3966,4.4043,4.4052,4.4084,4.4118,4.4123,4.3963,4.3942,4.3921,4.3894,4.4124,4.4125,4.4287,4.4288,4.429]},{"header":{"parameterUnit":"m.s-1","parameterCategory":1,"la1":30.2991,"la2":30.254,"lo1":-89.0895,"lo2":-89.0444,"dy":0.0017,"dx":0.0017,"nx":28,"ny":28,"refTime":"2024-09-28T21:00:00:Z","depth":0,"parameterNumber":3,"parameterNumberName":"V-component_of_WINDS"},"data":[0,0,0,0,0,0,0,0,0,0,0,0,0,0,0,0,0,0,0,0,0,0,0,0,0,0,0,0,0,0,0,0,0,0,0,0,0,0,0,0,0,0,0,0,0,0,0,0,0,0,0,0,0,0,0,0,0,0,2.1575,2.1575,0,2.1579,2.1579,2.1579,2.1546,2.1545,2.1544,2.1543,2.1547,2.1548,2.1549,0,0,0,0,0,0,0,0,0,0,0,0,0,2.1537,2.1538,2.1575,2.1575,2.1575,2.1579,2.1579,2.1579,2.1546,2.1545,2.1544,2.1543,2.1547,2.1548,2.1549,0,0,0,0,0,0,0,0,0,0,0,0,0,2.1549,2.1538,2.1575,2.1559,2.1558,2.1579,2.1579,2.1579,2.1547,2.1545,2.1544,2.1542,2.1546,2.1548,2.1549,2.1585,0,0,2.1553,2.1554,0,0,0,0,0,0,0,0,2.1548,2.155,2.1561,2.156,2.1559,2.1561,2.1567,2.1581,2.1547,2.1551,2.1543,2.1542,2.1553,2.1553,2.1557,2.1586,2.1586,2.1553,2.1554,2.1555,2.1555,0,0,0,0,0,0,0,2.1547,2.155,2.1576,2.1561,2.156,2.1551,2.1551,2.157,2.1559,2.155,2.1548,2.1549,2.1552,2.1556,2.1557,2.1586,2.1553,2.1555,2.1556,2.1556,2.1644,2.1646,0,0,0,0,0,0,2.1549,2.1549,2.1576,2.1577,2.155,2.1553,2.1553,2.1561,2.1559,2.1557,2.155,2.1547,2.1554,2.1555,2.1557,2.16,2.1555,2.1556,2.1557,2.1643,2.1645,2.1646,0,0,0,0,0,0,2.1548,2.1551,2.1576,2.1562,2.1565,2.1555,2.1565,2.1562,2.1566,2.1559,2.1557,2.1556,2.1553,2.1555,2.1579,2.1599,2.1557,2.1558,2.1641,2.1643,2.1645,2.1685,0,0,0,0,0,0,2.1547,2.1551,2.1565,2.1563,2.1566,2.1598,2.1566,2.1563,2.1569,2.1566,2.1564,2.1563,2.1552,2.1577,2.158,2.16,2.1559,2.1639,2.1642,2.1645,2.1682,2.1688,2.1694,0,0,0,0,0,2.1546,2.1576,2.1566,2.157,2.1583,2.1599,2.1601,2.1588,2.1571,2.1585,2.158,2.1563,2.1596,2.1579,2.1583,2.1604,2.1638,2.1641,2.1645,2.1679,2.1687,2.1694,0,0,0,0,0,0,2.1581,2.1575,2.1564,2.1595,2.1598,2.1594,2.1611,2.1597,2.1605,2.1601,2.1585,2.1585,2.1611,2.161,2.1591,2.1639,2.1614,2.1618,2.1639,2.1647,2.1653,2.1652,2.1561,0,0,0,0,0,2.1592,2.1606,2.1601,2.1628,2.163,2.162,2.1627,2.1617,2.1619,2.162,2.1617,2.162,2.1631,2.1639,2.1648,2.1681,2.1681,2.1698,2.1704,2.1709,2.1712,2.173,2.1737,2.1657,2.1657,2.1657,0,0,2.1616,2.1614,2.1624,2.1635,2.1636,2.1651,2.1622,2.1638,2.1649,2.1623,2.1645,2.1643,2.1645,2.1673,2.1686,2.1673,2.1734,2.1713,2.1717,2.1718,2.1734,2.1742,2.1748,2.1659,2.1659,2.1659,0,0,2.1666,2.1666,2.1689,2.1691,2.1694,2.1687,2.1692,2.169,2.1688,2.171,2.1691,2.1703,2.1723,2.1725,2.1729,2.178,2.1765,2.1784,2.1815,2.1832,2.1839,2.1844,2.1863,2.1869,2.1787,2.1788,2.1788,0,2.1695,2.1716,2.1703,2.1721,2.1726,2.1704,2.1727,2.1729,2.1734,2.1738,2.1724,2.1748,2.1748,2.1777,2.1789,2.1793,2.1799,2.1784,2.1839,2.1844,2.1849,2.1867,2.1874,2.179,2.179,2.1789,2.1789,0,2.1752,2.1767,2.1785,2.1792,2.1799,2.1819,2.1809,2.1817,2.1807,2.1802,2.1825,2.1823,2.1833,2.1839,2.1828,2.1866,2.1858,2.1842,2.1816,2.1859,2.1875,2.1882,2.1793,2.1792,2.1792,2.1791,0,0,2.1824,2.1823,2.183,2.1832,2.1833,2.1845,2.1864,2.1873,2.1882,2.1886,2.1902,2.1919,2.1904,2.1908,2.1898,2.1913,2.1954,2.1894,2.1894,2.1905,2.1995,2.2008,2.2016,2.1943,2.1945,2.1946,2.1995,0,2.1873,2.1907,2.1895,2.1929,2.1943,2.1922,2.1939,2.1941,2.1937,2.1948,2.1943,2.1955,2.1934,2.1937,2.1951,2.1946,2.1971,2.1942,2.1958,2.1959,2.1958,2.2024,2.2037,2.2084,2.2001,2.2002,2.2003,0,2.1935,2.1942,2.1978,2.1977,2.1982,2.1998,2.2006,2.2016,2.2019,2.2014,2.2019,2.2006,2.2025,2.1999,2.2025,2.2005,2.2011,2.2009,2.2011,2.2012,2.1984,2.2027,2.2099,2.2106,2.2013,2.2012,2.2011,0,2.1984,2.2003,2.2027,2.203,2.2029,2.204,2.2041,2.2041,2.2048,2.2054,2.2058,2.2067,2.2072,2.2079,2.2068,2.205,2.2095,2.2069,2.2092,2.2092,2.2102,2.2102,2.2176,2.2106,2.2106,2.2106,2.2106,0,2.204,2.2063,2.2049,2.2064,2.2089,2.2075,2.21,2.2097,2.2098,2.2112,2.2094,2.2107,2.2092,2.2104,2.2095,2.2118,2.212,2.2117,2.2114,2.2119,2.2119,2.2122,2.2119,2.2108,2.2107,2.2107,2.2107,0,2.21,2.2091,2.2116,2.2113,2.2113,2.2132,2.2129,2.2142,2.2137,2.2154,2.2158,2.2149,2.2162,2.2152,2.2164,2.2158,2.2188,2.2181,2.2188,2.2186,2.221,2.2208,2.2289,2.2299,2.2222,2.2223,2.2224,0,2.2136,2.2153,2.2153,2.2161,2.2162,2.2175,2.2182,2.2169,2.2177,2.2181,2.2193,2.2205,2.2213,2.2235,2.2229,2.2239,2.2232,2.2259,2.2233,2.2237,2.2232,2.2231,2.2233,2.2265,2.2266,2.2266,2.2267,0,2.2202,2.2197,2.2207,2.2217,2.2225,2.2232,2.2237,2.2244,2.2231,2.2241,2.2254,2.2261,2.2273,2.2285,2.2293,2.2292,2.2278,2.2275,2.2281,2.2286,2.2289,2.2288,2.2203,2.2274,2.2273,2.2272,2.2272,2.2272,2.2251,2.2265,2.2267,2.2279,2.2282,2.2287,2.23,2.2296,2.2307,2.2317,2.2308,2.2324,2.2326,2.2334,2.2336,2.2348,2.2336,2.2345,2.2347,2.235,2.2353,2.2287,2.2349,2.2349,2.2349,2.2349,2.2349,0,2.2315,2.2316,2.2327,2.2335,2.2345,2.2331,2.2336,2.2345,2.2359,2.2362,2.2371,2.2386,2.2397,2.2393,2.2403,2.2413,2.2407,2.2416,2.2415,2.2415,2.2363,2.2357,2.2421,2.2421,2.2421,2.2421,2.2421,2.2421,2.235,2.2374,2.2369,2.2394,2.2394,2.2409,2.2414,2.2418,2.2421,2.2439,2.2448,2.2445,2.2445,2.2455,2.2464,2.2463,2.2467,2.2479,2.2475,2.2426,2.2419,2.2412,2.2406,2.248,2.248,2.2527,2.2527,2.2527]}]]